Hourly Data Report for May 20, 2016

LA RONGE RCS
SASKATCHEWAN

55°08'47.020" N
105°16'13.030" W
378.60 m
4064149
71586
XOX

Download Data

Hourly Data (May 2016)
Hourly Data Report for May 20, 2016
TIME
LST
Temp Definition
°C
Dew Point Definition
°C
Rel Hum Definition
%
Precip. Amount Definition
mm

Wind Dir Definition
10's deg

Wind Spd Definition
km/h
Visibility Definition
km
Stn Press Definition
kPa
Hmdx Definition


Wind Chill Definition


Weather Definition


00:00 8.2 3.1 70 0.0 5 18   96.94     LegendNANA
01:00 7.1 2.4 72 0.0 4 14   96.99     LegendNANA
02:00 6.5 2.3 75 0.0 5 18   97.03     LegendNANA
03:00 6.0 2.3 77 0.0 6 19   97.08     LegendNANA
04:00 5.3 2.0 79 0.0 5 16   97.11     LegendNANA
05:00 4.7 1.8 81 0.0 5 20   97.17     LegendNANA
06:00 4.6 1.7 82 0.0 6 23   97.20     LegendNANA
07:00 4.7 1.5 80 0.0 7 24   97.29     LegendNANA
08:00 5.4 1.9 78 0.0 7 22   97.32     LegendNANA
09:00 5.4 1.5 76 0.0 6 23   97.35     LegendNANA
10:00 6.5 2.0 73 0.0 6 25   97.37     LegendNANA
11:00 7.6 2.0 68 0.0 6 23   97.40     LegendNANA
12:00 8.9 2.4 64 0.0 5 22   97.40     LegendNANA
13:00 10.8 2.7 57 0.0 5 20   97.38     LegendNANA
14:00 12.8 3.7 54 0.0 5 19   97.35     LegendNANA
15:00 14.1 3.7 49 0.0 6 25   97.32     LegendNANA
16:00 14.5 3.8 49 0.0 6 21   97.30     LegendNANA
17:00 15.1 4.5 49 0.0 6 21   97.27     LegendNANA
18:00 15.2 4.5 49 0.0 6 19   97.25     LegendNANA
19:00 15.0 5.5 53 0.0 6 14   97.24     LegendNANA
20:00 15.0 5.4 53 0.0 6 14   97.24     LegendNANA
21:00 14.3 5.2 54 0.0 8 13   97.25     LegendNANA
22:00 12.6 5.3 61 0.0 8 12   97.28     LegendNANA
23:00 11.4 5.6 67 0.0 7 9   97.27     LegendNANA

Notes on Data Quality.

Legend

  • E = Estimated
  • M = Missing
  • NA = Not Available*
  • [empty] = Indicates an unobserved value
Date modified: